Powrót do katalogu

CZ-6A DEB

AktywnySSO
NORAD 54557·DEBRIS·🇨🇳 China

Wystrzelony Nov 11, 2022 z Taiyuan Satellite Launch Center

Loading…

Następne Przeloty (najbliższe 24 godziny)

TLE

ŚwieżeSource: Space-Track

Epoka: Sep 14, 2026, 01:35 UTC

1 54557U 22151LH  26257.06630509  .00000506  00000-0  13403-3 0  9993
2 54557  98.5704 310.8589 0132117  28.0223 332.8001 14.48210423202355

Śledź CZ-6A DEB w czasie rzeczywistym z AllMySat

Download on the App Store